Overview Statistics Trail Chart Weather Telemetry Raw packets
 

This is the latest recevied weather packets stored in our database for station/object N7IGG. If no packets are shown the sender has not sent any weather packets the latest 10 day(s).

<< 1 2 3 4 >>
Time Temp. Humidity Pressure Rain* Wind** Luminosity Snow
1778207870 17.22° C 74% 1017.2 hPa 0 mm - 42 W/m² -
1778207567 17.78° C 73% 1017.2 hPa 0 mm - 42 W/m² -
1778207263 18.33° C 68% 1017.3 hPa 0 mm - 51 W/m² -
1778206960 19.44° C 65% 1017 hPa 0 mm - 72 W/m² -
1778206657 20° C 59% 1017.1 hPa 0 mm - 91 W/m² -
1778206352 19.44° C 61% 1017.3 hPa 0 mm - 110 W/m² -
1778206049 18.33° C 67% 1017.2 hPa 0 mm - 95 W/m² -
1778205747 17.78° C 67% 1017.2 hPa 0 mm - 71 W/m² -
1778205444 18.33° C 66% 1017.4 hPa 0 mm - 67 W/m² -
1778205141 18.89° C 61% 1017.4 hPa 0 mm - 106 W/m² -
1778204838 18.33° C 62% 1017.3 hPa 0 mm - 113 W/m² -
1778204534 18.33° C 64% 1017.4 hPa 0 mm - 109 W/m² -
1778204230 19.44° C 63% 1017.4 hPa 0 mm - 125 W/m² -
1778203927 18.89° C 63% 1017.2 hPa 0 mm - 131 W/m² -
1778203625 18.89° C 65% 1017.5 hPa 0 mm - 127 W/m² -
1778203321 19.44° C 60% 1017.7 hPa 0 mm - 120 W/m² -
1778203019 19.44° C 59% 1017.4 hPa 0 mm - 158 W/m² -
1778202717 19.44° C 59% 1017.4 hPa 0 mm - 217 W/m² -
1778202413 19.44° C 59% 1017.6 hPa 0 mm - 229 W/m² -
1778202111 19.44° C 59% 1017.7 hPa 0 mm - 184 W/m² -
1778201808 19.44° C 60% 1017.7 hPa 0 mm - 175 W/m² -
1778201504 19.44° C 57% 1017.8 hPa 0 mm - 241 W/m² -
1778201200 19.44° C 61% 1017.8 hPa 0 mm - 226 W/m² -
1778200896 19.44° C 60% 1017.8 hPa 0 mm - 246 W/m² -
1778200593 18.33° C 61% 1018 hPa 0 mm - 246 W/m² -

* Rain latest hour (hover to see other rain measurements)
** Current wind speed in m/s (hover to see current wind gust speed)